Time,TemperatureF,DewpointF,PressureIn,WindDirection,WindDirectionDegrees,WindSpeedMPH,WindSpeedGustMPH,Humidity,HourlyPrecipIn,Conditions,Clouds,dailyrainin,SoftwareType,DateUTC
2013-03-07 00:00:00,28.4,24.2,30.29,NNW,336,0.0,0.0,84,0.00,CLR,,0.00,WeatherDisplay:10.37,2013-03-07 06:00:00,
2013-03-07 00:05:00,28.2,24.0,30.29,NNW,336,0.0,0.0,84,0.00,CLR,,0.00,WeatherDisplay:10.37,2013-03-07 06:05:00,
2013-03-07 00:10:00,28.0,23.8,30.29,NNW,336,0.0,0.0,84,0.00,CLR,,0.00,WeatherDisplay:10.37,2013-03-07 06:10:00,
2013-03-07 00:15:00,27.9,23.7,30.29,NNW,336,0.0,0.0,84,0.00,CLR,,0.00,WeatherDisplay:10.37,2013-03-07 06:15:00,
2013-03-07 00:20:00,27.8,23.9,30.29,NNW,336,0.0,0.0,85,0.00,CLR,,0.00,WeatherDisplay:10.37,2013-03-07 06:20:00,
2013-03-07 00:25:00,27.7,23.8,30.29,NNW,336,0.0,0.0,85,0.00,CLR,,0.00,WeatherDisplay:10.37,2013-03-07 06:25:00,
2013-03-07 00:30:00,27.6,23.7,30.29,NNW,336,0.0,0.0,85,0.00,CLR,,0.00,WeatherDisplay:10.37,2013-03-07 06:30:00,
2013-03-07 00:35:00,27.6,24.0,30.29,NNW,336,0.0,0.0,86,0.00,CLR,,0.00,WeatherDisplay:10.37,2013-03-07 06:35:00,
2013-03-07 00:40:00,27.5,23.9,30.29,NNW,336,0.0,0.0,86,0.00,CLR,,0.00,WeatherDisplay:10.37,2013-03-07 06:40:00,
2013-03-07 00:45:00,27.4,23.8,30.29,NNW,336,0.0,0.0,86,0.00,CLR,,0.00,WeatherDisplay:10.37,2013-03-07 06:45:00,
2013-03-07 00:50:00,27.3,23.7,30.30,NNW,336,0.0,0.0,86,0.00,CLR,,0.00,WeatherDisplay:10.37,2013-03-07 06:50:00,
2013-03-07 00:55:00,27.2,23.6,30.30,NNW,336,0.0,0.0,86,0.00,CLR,,0.00,WeatherDisplay:10.37,2013-03-07 06:55:00,
2013-03-07 01:00:00,27.2,23.8,30.30,NNW,336,0.0,0.0,87,0.00,CLR,,0.00,WeatherDisplay:10.37,2013-03-07 07:00:00,
2013-03-07 01:05:00,27.1,23.7,30.30,NNW,336,0.0,0.0,87,0.00,CLR,,0.00,WeatherDisplay:10.37,2013-03-07 07:05:00,
2013-03-07 01:10:00,27.1,23.7,30.30,NNW,336,0.0,0.0,87,0.00,CLR,,0.00,WeatherDisplay:10.37,2013-03-07 07:10:00,
2013-03-07 01:15:00,27.0,23.6,30.30,NNW,336,0.0,0.0,87,0.00,CLR,,0.00,WeatherDisplay:10.37,2013-03-07 07:15:00,
2013-03-07 01:20:00,27.1,24.0,30.30,NNW,336,0.0,0.0,88,0.00,CLR,,0.00,WeatherDisplay:10.37,2013-03-07 07:20:00,
2013-03-07 01:25:00,27.5,24.7,30.30,NNW,336,0.0,0.0,89,0.00,CLR,,0.00,WeatherDisplay:10.37,2013-03-07 07:25:00,
2013-03-07 01:30:00,27.7,24.6,30.31,NNW,336,0.0,0.0,88,0.00,CLR,,0.00,WeatherDisplay:10.37,2013-03-07 07:30:00,
2013-03-07 01:35:00,27.7,24.6,30.30,NNW,336,0.0,0.0,88,0.00,CLR,,0.00,WeatherDisplay:10.37,2013-03-07 07:35:00,
2013-03-07 01:40:00,28.1,25.3,30.30,NNW,336,0.0,0.0,89,0.00,CLR,,0.00,WeatherDisplay:10.37,2013-03-07 07:40:00,
2013-03-07 01:45:00,28.4,25.3,30.30,NNW,336,0.0,0.0,88,0.00,CLR,,0.00,WeatherDisplay:10.37,2013-03-07 07:45:00,
2013-03-07 01:50:00,28.4,25.0,30.30,NNW,336,0.0,0.0,87,0.00,CLR,,0.00,WeatherDisplay:10.37,2013-03-07 07:50:00,
2013-03-07 01:55:00,28.4,25.0,30.30,NNW,336,0.0,0.0,87,0.00,CLR,,0.00,WeatherDisplay:10.37,2013-03-07 07:55:00,
2013-03-07 02:00:00,28.4,25.0,30.30,NNW,336,0.0,0.0,87,0.00,CLR,,0.00,WeatherDisplay:10.37,2013-03-07 08:00:00,
2013-03-07 02:05:00,28.4,25.0,30.30,NNW,336,0.0,0.0,87,0.00,CLR,,0.00,WeatherDisplay:10.37,2013-03-07 08:05:00,
2013-03-07 02:10:00,28.4,25.0,30.30,NNW,336,0.0,0.0,87,0.00,CLR,,0.00,WeatherDisplay:10.37,2013-03-07 08:10:00,
2013-03-07 02:15:00,28.2,24.8,30.30,NNW,336,0.0,0.0,87,0.00,CLR,,0.00,WeatherDisplay:10.37,2013-03-07 08:15:00,
2013-03-07 02:20:00,28.1,24.7,30.30,NNW,336,0.0,0.0,87,0.00,CLR,,0.00,WeatherDisplay:10.37,2013-03-07 08:20:00,
2013-03-07 02:25:00,28.1,24.7,30.31,NNW,336,0.0,0.0,87,0.00,CLR,,0.00,WeatherDisplay:10.37,2013-03-07 08:25:00,
2013-03-07 02:31:00,28.0,24.6,30.31,NNW,336,0.0,0.0,87,0.00,CLR,,0.00,WeatherDisplay:10.37,2013-03-07 08:31:00,
2013-03-07 02:36:00,27.8,24.4,30.30,NNW,336,0.0,0.0,87,0.00,CLR,,0.00,WeatherDisplay:10.37,2013-03-07 08:36:00,
2013-03-07 02:41:00,28.1,25.0,30.30,NNW,336,0.0,0.0,88,0.00,CLR,,0.00,WeatherDisplay:10.37,2013-03-07 08:41:00,
2013-03-07 02:46:00,28.2,24.8,30.30,NNW,336,0.0,0.0,87,0.00,CLR,,0.00,WeatherDisplay:10.37,2013-03-07 08:46:00,
2013-03-07 02:51:00,28.3,25.2,30.30,NNW,336,0.0,0.0,88,0.00,CLR,,0.00,WeatherDisplay:10.37,2013-03-07 08:51:00,
2013-03-07 02:56:00,28.5,25.1,30.30,NNW,336,0.0,0.0,87,0.00,CLR,,0.00,WeatherDisplay:10.37,2013-03-07 08:56:00,
2013-03-07 03:01:00,28.3,24.9,30.31,NNW,336,0.0,0.0,87,0.00,CLR,,0.00,WeatherDisplay:10.37,2013-03-07 09:01:00,
2013-03-07 03:06:00,28.1,24.5,30.31,NNW,336,0.0,0.0,86,0.00,CLR,,0.00,WeatherDisplay:10.37,2013-03-07 09:06:00,
2013-03-07 03:11:00,27.7,24.1,30.31,NNW,336,0.0,0.0,86,0.00,CLR,,0.00,WeatherDisplay:10.37,2013-03-07 09:11:00,
2013-03-07 03:16:00,27.4,23.8,30.32,NNW,336,0.0,0.0,86,0.00,CLR,,0.00,WeatherDisplay:10.37,2013-03-07 09:16:00,
2013-03-07 03:21:00,27.1,23.5,30.32,NNW,336,0.0,0.0,86,0.00,CLR,,0.00,WeatherDisplay:10.37,2013-03-07 09:21:00,
2013-03-07 03:26:00,26.8,23.2,30.32,NNW,336,0.0,0.0,86,0.00,CLR,,0.00,WeatherDisplay:10.37,2013-03-07 09:26:00,
2013-03-07 03:31:00,26.6,23.3,30.32,NNW,336,0.0,0.0,87,0.00,CLR,,0.00,WeatherDisplay:10.37,2013-03-07 09:31:00,
2013-03-07 03:36:00,26.4,23.1,30.33,NNW,336,0.0,0.0,87,0.00,CLR,,0.00,WeatherDisplay:10.37,2013-03-07 09:36:00,
2013-03-07 03:41:00,26.2,22.9,30.33,NNW,336,0.0,0.0,87,0.00,CLR,,0.00,WeatherDisplay:10.37,2013-03-07 09:41:00,
2013-03-07 03:46:00,26.1,22.8,30.33,NNW,336,0.0,0.0,87,0.00,CLR,,0.00,WeatherDisplay:10.37,2013-03-07 09:46:00,
2013-03-07 03:51:00,25.8,22.5,30.33,NNW,336,0.0,0.0,87,0.00,CLR,,0.00,WeatherDisplay:10.37,2013-03-07 09:51:00,
2013-03-07 03:56:00,25.6,22.3,30.33,NNW,336,0.0,0.0,87,0.00,CLR,,0.00,WeatherDisplay:10.37,2013-03-07 09:56:00,
2013-03-07 04:01:00,25.4,22.1,30.34,NNW,336,0.0,0.0,87,0.00,CLR,,0.00,WeatherDisplay:10.37,2013-03-07 10:01:00,
2013-03-07 04:06:00,25.2,22.1,30.33,NNW,336,0.0,0.0,88,0.00,CLR,,0.00,WeatherDisplay:10.37,2013-03-07 10:06:00,
2013-03-07 04:11:00,25.1,22.0,30.33,NNW,336,0.0,0.0,88,0.00,CLR,,0.00,WeatherDisplay:10.37,2013-03-07 10:11:00,
2013-03-07 04:16:00,24.9,21.8,30.33,NNW,336,0.0,0.0,88,0.00,CLR,,0.00,WeatherDisplay:10.37,2013-03-07 10:16:00,
2013-03-07 04:22:00,24.7,21.7,30.34,NNW,336,0.0,0.0,88,0.00,CLR,,0.00,WeatherDisplay:10.37,2013-03-07 10:22:00,
2013-03-07 04:27:00,24.5,21.5,30.33,NNW,336,0.0,0.0,88,0.00,CLR,,0.00,WeatherDisplay:10.37,2013-03-07 10:27:00,
2013-03-07 04:32:00,24.4,21.4,30.33,NNW,336,0.0,0.0,88,0.00,CLR,,0.00,WeatherDisplay:10.37,2013-03-07 10:32:00,
2013-03-07 04:37:00,24.4,21.6,30.34,NNW,336,0.0,0.0,89,0.00,CLR,,0.00,WeatherDisplay:10.37,2013-03-07 10:37:00,
2013-03-07 04:42:00,24.3,21.5,30.34,NNW,336,0.0,0.0,89,0.00,CLR,,0.00,WeatherDisplay:10.37,2013-03-07 10:42:00,
2013-03-07 04:47:00,24.2,21.4,30.34,NNW,336,0.0,0.0,89,0.00,CLR,,0.00,WeatherDisplay:10.37,2013-03-07 10:47:00,
2013-03-07 04:52:00,24.5,22.0,30.34,NNW,336,0.0,0.0,90,0.00,CLR,,0.00,WeatherDisplay:10.37,2013-03-07 10:52:00,
2013-03-07 04:57:00,25.6,23.6,30.33,NNW,336,0.0,0.0,92,0.00,CLR,,0.00,WeatherDisplay:10.37,2013-03-07 10:57:00,
2013-03-07 05:02:00,26.6,24.6,30.33,NNW,336,0.0,0.0,92,0.00,CLR,,0.00,WeatherDisplay:10.37,2013-03-07 11:02:00,
2013-03-07 05:07:00,27.1,24.8,30.34,NNW,336,0.0,0.0,91,0.00,CLR,,0.00,WeatherDisplay:10.37,2013-03-07 11:07:00,
2013-03-07 05:12:00,27.5,25.2,30.34,NNW,336,0.0,0.0,91,0.00,CLR,,0.00,WeatherDisplay:10.37,2013-03-07 11:12:00,
2013-03-07 05:17:00,27.8,25.2,30.34,NNW,336,0.0,0.0,90,0.00,CLR,,0.00,WeatherDisplay:10.37,2013-03-07 11:17:00,
2013-03-07 05:22:00,28.0,25.2,30.34,NNW,336,0.0,0.0,89,0.00,CLR,,0.00,WeatherDisplay:10.37,2013-03-07 11:22:00,
2013-03-07 05:27:00,28.1,25.3,30.35,NNW,336,0.0,0.0,89,0.00,CLR,,0.00,WeatherDisplay:10.37,2013-03-07 11:27:00,
2013-03-07 05:32:00,28.2,25.4,30.35,NNW,336,0.0,0.0,89,0.00,CLR,,0.00,WeatherDisplay:10.37,2013-03-07 11:32:00,
2013-03-07 05:37:00,28.2,25.4,30.35,NNW,336,0.0,0.0,89,0.00,CLR,,0.00,WeatherDisplay:10.37,2013-03-07 11:37:00,
2013-03-07 05:42:00,28.3,25.2,30.35,NNW,336,0.0,0.0,88,0.00,CLR,,0.00,WeatherDisplay:10.37,2013-03-07 11:42:00,
2013-03-07 05:47:00,28.3,25.2,30.35,NNW,336,0.0,0.0,88,0.00,CLR,,0.00,WeatherDisplay:10.37,2013-03-07 11:47:00,
2013-03-07 05:52:00,28.4,25.3,30.35,NNW,336,0.0,0.0,88,0.00,CLR,,0.00,WeatherDisplay:10.37,2013-03-07 11:52:00,
2013-03-07 05:57:00,28.4,25.3,30.35,NNW,336,0.0,0.0,88,0.00,CLR,,0.00,WeatherDisplay:10.37,2013-03-07 11:57:00,
2013-03-07 06:02:00,28.5,25.1,30.34,NNW,336,0.0,0.0,87,0.00,CLR,,0.00,WeatherDisplay:10.37,2013-03-07 12:02:00,
2013-03-07 06:07:00,28.5,25.1,30.35,NNW,336,0.0,0.0,87,0.00,CLR,,0.00,WeatherDisplay:10.37,2013-03-07 12:07:00,
2013-03-07 06:12:00,28.6,25.2,30.35,NNW,336,0.0,0.0,87,0.00,CLR,,0.00,WeatherDisplay:10.37,2013-03-07 12:12:00,
2013-03-07 06:17:00,28.6,24.9,30.35,North,355,0.0,0.0,86,0.00,CLR,,0.00,WeatherDisplay:10.37,2013-03-07 12:17:00,
2013-03-07 06:23:00,28.6,24.9,30.35,North,355,0.0,0.0,86,0.00,CLR,,0.00,WeatherDisplay:10.37,2013-03-07 12:23:00,
2013-03-07 06:28:00,28.6,24.9,30.35,North,355,0.0,0.0,86,0.00,CLR,,0.00,WeatherDisplay:10.37,2013-03-07 12:28:00,
2013-03-07 06:33:00,28.5,24.8,30.35,North,355,0.0,0.0,86,0.00,CLR,,0.00,WeatherDisplay:10.37,2013-03-07 12:33:00,
2013-03-07 06:38:00,28.5,24.8,30.35,North,355,0.0,0.0,86,0.00,CLR,,0.00,WeatherDisplay:10.37,2013-03-07 12:38:00,
2013-03-07 06:43:00,28.6,24.9,30.35,North,355,0.0,0.0,86,0.00,CLR,,0.00,WeatherDisplay:10.37,2013-03-07 12:43:00,
2013-03-07 06:48:00,28.7,25.0,30.35,North,355,0.0,0.0,86,0.00,CLR,,0.00,WeatherDisplay:10.37,2013-03-07 12:48:00,
2013-03-07 06:53:00,28.8,25.1,30.35,North,355,0.0,0.0,86,0.00,CLR,,0.00,WeatherDisplay:10.37,2013-03-07 12:53:00,
2013-03-07 06:58:00,28.8,25.1,30.35,North,355,0.0,0.0,86,0.00,CLR,,0.00,WeatherDisplay:10.37,2013-03-07 12:58:00,
2013-03-07 07:03:00,28.9,25.2,30.35,North,355,0.0,0.0,86,0.00,CLR,,0.00,WeatherDisplay:10.37,2013-03-07 13:03:00,
2013-03-07 07:08:00,28.9,25.2,30.36,North,5,1.1,0.0,86,0.00,CLR,,0.00,WeatherDisplay:10.37,2013-03-07 13:08:00,
2013-03-07 07:13:00,29.0,25.3,30.36,North,5,0.0,0.0,86,0.00,CLR,,0.00,WeatherDisplay:10.37,2013-03-07 13:13:00,
2013-03-07 07:18:00,29.2,25.5,30.36,North,5,0.0,0.0,86,0.00,CLR,,0.00,WeatherDisplay:10.37,2013-03-07 13:18:00,
2013-03-07 07:23:00,29.2,25.5,30.36,North,5,0.0,0.0,86,0.00,CLR,,0.00,WeatherDisplay:10.37,2013-03-07 13:23:00,
2013-03-07 07:28:00,29.4,25.7,30.37,North,5,0.0,0.0,86,0.00,CLR,,0.00,WeatherDisplay:10.37,2013-03-07 13:28:00,
2013-03-07 07:33:00,29.6,25.9,30.37,North,5,0.0,0.0,86,0.00,CLR,,0.00,WeatherDisplay:10.37,2013-03-07 13:33:00,
2013-03-07 07:38:00,30.0,26.3,30.37,North,5,0.0,0.0,86,0.00,CLR,,0.00,WeatherDisplay:10.37,2013-03-07 13:38:00,
2013-03-07 07:43:00,30.4,26.4,30.37,ENE,77,1.1,1.1,85,0.00,CLR,,0.00,WeatherDisplay:10.37,2013-03-07 13:43:00,
2013-03-07 07:48:00,30.9,26.9,30.37,East,80,1.1,0.0,85,0.00,CLR,,0.00,WeatherDisplay:10.37,2013-03-07 13:48:00,
2013-03-07 07:53:00,31.4,27.1,30.37,ENE,64,0.0,0.0,84,0.00,CLR,,0.00,WeatherDisplay:10.37,2013-03-07 13:53:00,
2013-03-07 07:58:00,31.6,27.0,30.38,ENE,75,3.5,3.5,83,0.00,CLR,,0.00,WeatherDisplay:10.37,2013-03-07 13:58:00,
2013-03-07 08:03:00,31.8,27.2,30.38,ENE,70,1.1,0.0,83,0.00,CLR,,0.00,WeatherDisplay:10.37,2013-03-07 14:03:00,
2013-03-07 08:08:00,32.0,27.4,30.38,East,83,1.1,0.0,83,0.00,CLR,,0.00,WeatherDisplay:10.37,2013-03-07 14:08:00,
2013-03-07 08:14:00,32.4,27.5,30.38,ENE,74,1.1,1.1,82,0.00,CLR,,0.00,WeatherDisplay:10.37,2013-03-07 14:14:00,
2013-03-07 08:19:00,32.6,27.4,30.38,ENE,69,3.5,3.5,81,0.00,CLR,,0.00,WeatherDisplay:10.37,2013-03-07 14:19:00,
2013-03-07 08:24:00,33.0,27.8,30.38,ENE,76,2.3,2.3,81,0.00,CLR,,0.00,WeatherDisplay:10.37,2013-03-07 14:24:00,
2013-03-07 08:29:00,33.4,28.2,30.38,East,101,3.5,3.5,81,0.00,CLR,,0.00,WeatherDisplay:10.37,2013-03-07 14:29:00,
2013-03-07 08:34:00,33.8,28.3,30.38,East,79,2.3,2.3,80,0.00,CLR,,0.00,WeatherDisplay:10.37,2013-03-07 14:34:00,
2013-03-07 08:39:00,34.2,28.4,30.38,ENE,66,1.1,0.0,79,0.00,CLR,,0.00,WeatherDisplay:10.37,2013-03-07 14:39:00,
2013-03-07 08:44:00,34.6,28.8,30.38,ENE,78,1.1,1.1,79,0.00,CLR,,0.00,WeatherDisplay:10.37,2013-03-07 14:44:00,
2013-03-07 08:49:00,34.8,28.3,30.39,NE,49,2.3,2.3,77,0.00,CLR,,0.00,WeatherDisplay:10.37,2013-03-07 14:49:00,
2013-03-07 08:54:00,35.1,28.9,30.39,East,87,2.3,2.3,78,0.00,CLR,,0.00,WeatherDisplay:10.37,2013-03-07 14:54:00,
2013-03-07 08:59:00,35.6,28.8,30.39,ENE,62,2.3,0.0,76,0.00,CLR,,0.00,WeatherDisplay:10.37,2013-03-07 14:59:00,
2013-03-07 09:04:00,35.7,27.9,30.39,NE,44,1.1,1.1,73,0.00,CLR,,0.00,WeatherDisplay:10.37,2013-03-07 15:04:00,
2013-03-07 09:09:00,35.6,27.8,30.39,NE,36,2.3,2.3,73,0.00,CLR,,0.00,WeatherDisplay:10.37,2013-03-07 15:09:00,
2013-03-07 09:14:00,35.5,27.7,30.39,North,360,0.0,0.1,73,0.00,CLR,,0.00,WeatherDisplay:10.37,2013-03-07 15:14:00,
2013-03-07 09:19:00,35.6,27.5,30.39,NNE,26,3.5,3.5,72,0.00,CLR,,0.00,WeatherDisplay:10.37,2013-03-07 15:19:00,
2013-03-07 09:24:00,35.3,27.2,30.38,North,10,2.3,2.3,72,0.00,CLR,,0.00,WeatherDisplay:10.37,2013-03-07 15:24:00,
2013-03-07 09:29:00,35.1,27.0,30.39,NNE,15,0.0,0.0,72,0.00,CLR,,0.00,WeatherDisplay:10.37,2013-03-07 15:29:00,
2013-03-07 09:34:00,35.3,27.5,30.39,NE,40,1.0,1.0,73,0.00,CLR,,0.00,WeatherDisplay:10.37,2013-03-07 15:34:00,
2013-03-07 09:40:00,35.5,27.4,30.39,North,350,2.3,2.3,72,0.00,CLR,,0.00,WeatherDisplay:10.37,2013-03-07 15:40:00,
2013-03-07 09:45:00,35.6,27.8,30.39,NNW,348,2.3,0.0,73,0.00,CLR,,0.00,WeatherDisplay:10.37,2013-03-07 15:45:00,
2013-03-07 09:50:00,35.7,27.6,30.39,NNW,348,0.0,0.0,72,0.00,CLR,,0.00,WeatherDisplay:10.37,2013-03-07 15:50:00,
2013-03-07 09:55:00,35.9,28.1,30.39,NNW,348,1.1,1.1,73,0.00,CLR,,0.00,WeatherDisplay:10.37,2013-03-07 15:55:00,
2013-03-07 10:00:00,36.2,28.0,30.39,WNW,297,2.3,2.3,72,0.00,CLR,,0.00,WeatherDisplay:10.37,2013-03-07 16:00:00,
2013-03-07 10:05:00,36.6,28.4,30.39,WNW,297,1.1,1.1,72,0.00,CLR,,0.00,WeatherDisplay:10.37,2013-03-07 16:05:00,
2013-03-07 10:10:00,36.9,28.0,30.39,North,355,2.3,2.3,70,0.00,CLR,,0.00,WeatherDisplay:10.37,2013-03-07 16:10:00,
2013-03-07 10:15:00,37.1,27.5,30.39,North,355,0.0,0.0,68,0.00,CLR,,0.00,WeatherDisplay:10.37,2013-03-07 16:15:00,
2013-03-07 10:20:00,37.5,27.9,30.39,NNE,26,2.3,2.3,68,0.00,CLR,,0.00,WeatherDisplay:10.37,2013-03-07 16:20:00,
2013-03-07 10:25:00,37.9,28.3,30.39,North,5,2.3,2.3,68,0.00,CLR,,0.00,WeatherDisplay:10.37,2013-03-07 16:25:00,
2013-03-07 10:30:00,38.0,28.0,30.39,NE,38,0.0,0.0,67,0.00,CLR,,0.00,WeatherDisplay:10.37,2013-03-07 16:30:00,
2013-03-07 10:35:00,38.3,28.7,30.38,East,86,3.5,3.5,68,0.00,CLR,,0.00,WeatherDisplay:10.37,2013-03-07 16:35:00,
2013-03-07 10:40:00,38.7,28.7,30.38,SE,126,1.1,1.1,67,0.00,CLR,,0.00,WeatherDisplay:10.37,2013-03-07 16:40:00,
2013-03-07 10:45:00,39.2,28.8,30.38,NW,311,2.0,2.0,66,0.00,CLR,,0.00,WeatherDisplay:10.37,2013-03-07 16:45:00,
2013-03-07 10:50:00,39.7,29.3,30.38,East,92,1.1,1.3,66,0.00,CLR,,0.00,WeatherDisplay:10.37,2013-03-07 16:50:00,
2013-03-07 10:55:00,40.2,29.7,30.39,ESE,109,2.3,2.3,66,0.00,CLR,,0.00,WeatherDisplay:10.37,2013-03-07 16:55:00,
2013-03-07 11:00:00,40.4,29.6,30.39,NNW,342,3.5,3.5,65,0.00,CLR,,0.00,WeatherDisplay:10.37,2013-03-07 17:00:00,
2013-03-07 11:05:00,40.5,30.0,30.38,East,88,1.1,1.1,66,0.00,CLR,,0.00,WeatherDisplay:10.37,2013-03-07 17:05:00,
2013-03-07 11:10:00,40.9,30.0,30.38,ESE,122,2.3,0.0,65,0.00,CLR,,0.00,WeatherDisplay:10.37,2013-03-07 17:10:00,
2013-03-07 11:15:00,41.2,29.5,30.38,NE,34,2.0,2.0,63,0.00,CLR,,0.00,WeatherDisplay:10.37,2013-03-07 17:15:00,
2013-03-07 11:20:00,40.8,28.8,30.38,NE,52,4.0,4.0,62,0.00,CLR,,0.00,WeatherDisplay:10.37,2013-03-07 17:20:00,
2013-03-07 11:25:00,40.8,29.6,30.38,NE,48,1.1,1.1,64,0.00,CLR,,0.00,WeatherDisplay:10.37,2013-03-07 17:25:00,
2013-03-07 11:30:00,40.8,29.2,30.38,NNW,332,3.5,3.5,63,0.00,CLR,,0.00,WeatherDisplay:10.37,2013-03-07 17:30:00,
2013-03-07 11:35:00,40.8,29.6,30.38,NNW,334,1.1,0.0,64,0.00,CLR,,0.00,WeatherDisplay:10.37,2013-03-07 17:35:00,
2013-03-07 11:40:00,41.3,29.6,30.38,NNW,344,3.5,3.5,63,0.00,CLR,,0.00,WeatherDisplay:10.37,2013-03-07 17:40:00,
2013-03-07 11:46:00,41.7,30.0,30.38,NE,41,2.0,2.0,63,0.00,CLR,,0.00,WeatherDisplay:10.37,2013-03-07 17:46:00,
2013-03-07 11:51:00,41.5,29.0,30.37,East,97,0.0,0.5,61,0.00,CLR,,0.00,WeatherDisplay:10.37,2013-03-07 17:51:00,
2013-03-07 11:56:00,41.9,29.4,30.37,North,360,3.5,3.5,61,0.00,CLR,,0.00,WeatherDisplay:10.37,2013-03-07 17:56:00,
2013-03-07 12:01:00,42.0,29.5,30.37,North,355,2.0,2.0,61,0.00,CLR,,0.00,WeatherDisplay:10.37,2013-03-07 18:01:00,
2013-03-07 12:06:00,41.9,29.8,30.37,NW,319,4.6,4.6,62,0.00,CLR,,0.00,WeatherDisplay:10.37,2013-03-07 18:06:00,
2013-03-07 12:11:00,42.2,29.7,30.37,North,11,1.1,1.1,61,0.00,CLR,,0.00,WeatherDisplay:10.37,2013-03-07 18:11:00,
2013-03-07 12:16:00,42.4,29.9,30.36,North,5,2.3,2.3,61,0.00,CLR,,0.00,WeatherDisplay:10.37,2013-03-07 18:16:00,
2013-03-07 12:21:00,42.7,30.6,30.36,North,5,2.3,2.3,62,0.00,CLR,,0.00,WeatherDisplay:10.37,2013-03-07 18:21:00,
2013-03-07 12:26:00,42.7,29.4,30.36,NE,37,0.0,0.0,59,0.00,CLR,,0.00,WeatherDisplay:10.37,2013-03-07 18:26:00,
2013-03-07 12:31:00,43.0,30.9,30.36,NNW,337,3.5,3.5,62,0.00,CLR,,0.00,WeatherDisplay:10.37,2013-03-07 18:31:00,
2013-03-07 12:36:00,43.4,30.8,30.36,North,9,3.5,3.5,61,0.00,CLR,,0.00,WeatherDisplay:10.37,2013-03-07 18:36:00,
2013-03-07 12:41:00,42.9,28.7,30.36,North,360,2.3,2.3,57,0.00,CLR,,0.00,WeatherDisplay:10.37,2013-03-07 18:41:00,
2013-03-07 12:46:00,42.8,29.5,30.35,North,10,3.0,3.0,59,0.00,CLR,,0.00,WeatherDisplay:10.37,2013-03-07 18:46:00,
2013-03-07 12:51:00,42.9,29.5,30.35,NNE,26,3.5,3.5,59,0.00,CLR,,0.00,WeatherDisplay:10.37,2013-03-07 18:51:00,
2013-03-07 12:56:00,43.1,29.7,30.35,East,83,3.5,3.5,59,0.00,CLR,,0.00,WeatherDisplay:10.37,2013-03-07 18:56:00,
2013-03-07 13:01:00,43.0,29.6,30.35,NNE,22,2.3,2.3,59,0.00,CLR,,0.00,WeatherDisplay:10.37,2013-03-07 19:01:00,
2013-03-07 13:06:00,43.0,29.2,30.34,NNE,15,2.3,2.3,58,0.00,CLR,,0.00,WeatherDisplay:10.37,2013-03-07 19:06:00,
2013-03-07 13:11:00,43.2,29.8,30.34,ENE,70,2.3,2.3,59,0.00,CLR,,0.00,WeatherDisplay:10.37,2013-03-07 19:11:00,
2013-03-07 13:16:00,43.7,29.9,30.34,WNW,299,3.5,0.0,58,0.00,CLR,,0.00,WeatherDisplay:10.37,2013-03-07 19:16:00,
2013-03-07 13:21:00,43.8,29.1,30.33,NNW,331,3.5,3.5,56,0.00,CLR,,0.00,WeatherDisplay:10.37,2013-03-07 19:21:00,
2013-03-07 13:26:00,43.7,29.5,30.33,North,5,1.1,1.1,57,0.00,CLR,,0.00,WeatherDisplay:10.37,2013-03-07 19:26:00,
2013-03-07 13:31:00,43.8,29.5,30.33,North,360,3.5,3.5,57,0.00,CLR,,0.00,WeatherDisplay:10.37,2013-03-07 19:31:00,
2013-03-07 13:37:00,44.0,29.7,30.33,North,355,2.3,2.3,57,0.00,CLR,,0.00,WeatherDisplay:10.37,2013-03-07 19:37:00,
2013-03-07 13:42:00,44.0,30.2,30.33,North,355,3.5,3.5,58,0.00,CLR,,0.00,WeatherDisplay:10.37,2013-03-07 19:42:00,
2013-03-07 13:47:00,44.2,29.9,30.33,North,350,3.5,3.5,57,0.00,CLR,,0.00,WeatherDisplay:10.37,2013-03-07 19:47:00,
2013-03-07 13:52:00,44.4,30.5,30.33,North,355,1.1,1.1,58,0.00,CLR,,0.00,WeatherDisplay:10.37,2013-03-07 19:52:00,
2013-03-07 13:57:00,44.7,30.8,30.33,WSW,252,4.6,4.6,58,0.00,CLR,,0.00,WeatherDisplay:10.37,2013-03-07 19:57:00,
2013-03-07 14:02:00,45.6,31.2,30.32,WNW,297,1.1,1.1,57,0.00,CLR,,0.00,WeatherDisplay:10.37,2013-03-07 20:02:00,
2013-03-07 14:07:00,45.7,30.4,30.32,North,5,1.1,1.1,55,0.00,CLR,,0.00,WeatherDisplay:10.37,2013-03-07 20:07:00,
2013-03-07 14:12:00,45.8,31.0,30.32,NE,53,0.0,0.1,56,0.00,CLR,,0.00,WeatherDisplay:10.37,2013-03-07 20:12:00,
2013-03-07 14:17:00,45.9,30.2,30.32,NNE,26,1.1,1.1,54,0.00,CLR,,0.00,WeatherDisplay:10.37,2013-03-07 20:17:00,
2013-03-07 14:22:00,45.7,30.4,30.32,NW,306,3.5,3.5,55,0.00,CLR,,0.00,WeatherDisplay:10.37,2013-03-07 20:22:00,
2013-03-07 14:27:00,45.8,30.5,30.32,NNE,13,2.3,2.3,55,0.00,CLR,,0.00,WeatherDisplay:10.37,2013-03-07 20:27:00,
2013-03-07 14:33:00,45.5,30.7,30.32,NNE,18,1.1,1.1,56,0.00,CLR,,0.00,WeatherDisplay:10.37,2013-03-07 20:33:00,
2013-03-07 14:38:00,45.6,29.9,30.32,NNE,16,2.3,2.3,54,0.00,CLR,,0.00,WeatherDisplay:10.37,2013-03-07 20:38:00,
2013-03-07 14:43:00,45.3,30.1,30.31,NNE,14,2.3,2.3,55,0.00,CLR,,0.00,WeatherDisplay:10.37,2013-03-07 20:43:00,
2013-03-07 14:48:00,45.4,30.6,30.31,North,350,1.0,1.0,56,0.00,CLR,,0.00,WeatherDisplay:10.37,2013-03-07 20:48:00,
2013-03-07 14:53:00,45.6,30.3,30.31,NE,52,1.1,1.1,55,0.00,CLR,,0.00,WeatherDisplay:10.37,2013-03-07 20:53:00,
2013-03-07 14:58:00,45.9,30.2,30.31,NE,52,0.0,0.0,54,0.00,CLR,,0.00,WeatherDisplay:10.37,2013-03-07 20:58:00,
2013-03-07 15:03:00,46.3,31.0,30.31,East,101,5.8,5.8,55,0.00,CLR,,0.00,WeatherDisplay:10.37,2013-03-07 21:03:00,
2013-03-07 15:08:00,46.3,30.5,30.31,ESE,102,1.1,1.1,54,0.00,CLR,,0.00,WeatherDisplay:10.37,2013-03-07 21:08:00,
2013-03-07 15:13:00,46.6,31.3,30.31,NNE,27,1.1,1.1,55,0.00,CLR,,0.00,WeatherDisplay:10.37,2013-03-07 21:13:00,
2013-03-07 15:18:00,46.5,30.3,30.30,NNE,28,0.0,0.0,53,0.00,CLR,,0.00,WeatherDisplay:10.37,2013-03-07 21:18:00,
2013-03-07 15:23:00,46.6,30.8,30.30,NNW,331,2.3,2.3,54,0.00,CLR,,0.00,WeatherDisplay:10.37,2013-03-07 21:23:00,
2013-03-07 15:28:00,47.4,31.6,30.30,ESE,112,2.3,2.3,54,0.00,CLR,,0.00,WeatherDisplay:10.37,2013-03-07 21:28:00,
2013-03-07 15:33:00,47.7,31.4,30.30,NNW,348,2.3,2.3,53,0.00,CLR,,0.00,WeatherDisplay:10.37,2013-03-07 21:33:00,
2013-03-07 15:38:00,47.5,31.2,30.30,NNE,15,1.1,1.1,53,0.00,CLR,,0.00,WeatherDisplay:10.37,2013-03-07 21:38:00,
2013-03-07 15:43:00,47.2,31.4,30.30,ENE,78,1.1,1.1,54,0.00,CLR,,0.00,WeatherDisplay:10.37,2013-03-07 21:43:00,
2013-03-07 15:48:00,47.2,31.4,30.30,ESE,119,3.5,3.5,54,0.00,CLR,,0.00,WeatherDisplay:10.37,2013-03-07 21:48:00,
2013-03-07 15:53:00,47.4,32.5,30.30,ENE,69,1.1,1.1,56,0.00,CLR,,0.00,WeatherDisplay:10.37,2013-03-07 21:53:00,
2013-03-07 15:58:00,47.4,31.6,30.30,NE,52,1.1,0.0,54,0.00,CLR,,0.00,WeatherDisplay:10.37,2013-03-07 21:58:00,
2013-03-07 16:03:00,47.4,31.1,30.30,ENE,67,1.1,0.0,53,0.00,CLR,,0.00,WeatherDisplay:10.37,2013-03-07 22:03:00,
2013-03-07 16:08:00,47.2,30.9,30.30,ENE,69,0.0,0.0,53,0.00,CLR,,0.00,WeatherDisplay:10.37,2013-03-07 22:08:00,
2013-03-07 16:13:00,47.2,31.8,30.30,East,88,2.3,2.3,55,0.00,CLR,,0.00,WeatherDisplay:10.37,2013-03-07 22:13:00,
2013-03-07 16:18:00,47.2,31.4,30.30,ESE,106,2.3,0.0,54,0.00,CLR,,0.00,WeatherDisplay:10.37,2013-03-07 22:18:00,
2013-03-07 16:23:00,47.0,31.2,30.30,ENE,74,1.1,1.1,54,0.00,CLR,,0.00,WeatherDisplay:10.37,2013-03-07 22:23:00,
2013-03-07 16:28:00,47.0,31.2,30.30,East,94,1.1,0.0,54,0.00,CLR,,0.00,WeatherDisplay:10.37,2013-03-07 22:28:00,
2013-03-07 16:33:00,47.0,31.2,30.30,East,79,1.1,0.0,54,0.00,CLR,,0.00,WeatherDisplay:10.37,2013-03-07 22:33:00,
2013-03-07 16:38:00,47.0,31.2,30.30,ENE,58,1.1,1.1,54,0.00,CLR,,0.00,WeatherDisplay:10.37,2013-03-07 22:38:00,
2013-03-07 16:44:00,46.8,30.6,30.30,ENE,61,1.1,1.1,53,0.00,CLR,,0.00,WeatherDisplay:10.37,2013-03-07 22:44:00,
2013-03-07 16:49:00,46.4,30.6,30.30,NE,34,1.1,0.0,54,0.00,CLR,,0.00,WeatherDisplay:10.37,2013-03-07 22:49:00,
2013-03-07 16:54:00,46.3,31.0,30.30,NE,34,2.3,2.3,55,0.00,CLR,,0.00,WeatherDisplay:10.37,2013-03-07 22:54:00,
2013-03-07 16:59:00,46.1,30.8,30.30,ENE,71,1.1,1.1,55,0.00,CLR,,0.00,WeatherDisplay:10.37,2013-03-07 22:59:00,
2013-03-07 17:04:00,46.1,30.8,30.30,ENE,78,1.1,0.0,55,0.00,CLR,,0.00,WeatherDisplay:10.37,2013-03-07 23:04:00,
2013-03-07 17:09:00,46.2,30.9,30.30,ENE,77,1.1,0.0,55,0.00,CLR,,0.00,WeatherDisplay:10.37,2013-03-07 23:09:00,
2013-03-07 17:14:00,46.1,30.4,30.30,East,88,0.0,0.0,54,0.00,CLR,,0.00,WeatherDisplay:10.37,2013-03-07 23:14:00,
2013-03-07 17:19:00,45.9,30.2,30.30,East,88,0.0,0.0,54,0.00,CLR,,0.00,WeatherDisplay:10.37,2013-03-07 23:19:00,
2013-03-07 17:24:00,45.6,30.8,30.30,East,86,1.1,1.1,56,0.00,CLR,,0.00,WeatherDisplay:10.37,2013-03-07 23:24:00,
2013-03-07 17:29:00,45.5,30.7,30.30,East,87,0.0,0.0,56,0.00,CLR,,0.00,WeatherDisplay:10.37,2013-03-07 23:29:00,
2013-03-07 17:34:00,45.3,31.0,30.30,East,87,0.0,0.0,57,0.00,CLR,,0.00,WeatherDisplay:10.37,2013-03-07 23:34:00,
2013-03-07 17:39:00,45.0,30.7,30.30,East,87,0.0,0.0,57,0.00,CLR,,0.00,WeatherDisplay:10.37,2013-03-07 23:39:00,
2013-03-07 17:44:00,44.7,30.8,30.30,East,87,0.0,0.1,58,0.00,CLR,,0.00,WeatherDisplay:10.37,2013-03-07 23:44:00,
2013-03-07 17:49:00,44.3,30.9,30.30,East,87,0.0,0.0,59,0.00,CLR,,0.00,WeatherDisplay:10.37,2013-03-07 23:49:00,
2013-03-07 17:54:00,43.9,30.5,30.30,East,87,0.0,0.0,59,0.00,CLR,,0.00,WeatherDisplay:10.37,2013-03-07 23:54:00,
2013-03-07 17:59:00,43.5,30.5,30.31,East,87,1.1,0.0,60,0.00,CLR,,0.00,WeatherDisplay:10.37,2013-03-07 23:59:00,
2013-03-07 18:04:00,43.1,30.6,30.31,East,87,0.0,0.0,61,0.00,CLR,,0.00,WeatherDisplay:10.37,2013-03-08 00:04:00,
2013-03-07 18:09:00,42.8,30.7,30.31,East,87,0.0,0.0,62,0.00,CLR,,0.00,WeatherDisplay:10.37,2013-03-08 00:09:00,
2013-03-07 18:14:00,42.4,30.3,30.31,East,87,0.0,0.0,62,0.00,CLR,,0.00,WeatherDisplay:10.37,2013-03-08 00:14:00,
2013-03-07 18:19:00,42.1,30.4,30.31,East,87,0.0,0.0,63,0.00,CLR,,0.00,WeatherDisplay:10.37,2013-03-08 00:19:00,
2013-03-07 18:24:00,41.8,30.1,30.31,East,87,0.0,0.0,63,0.00,CLR,,0.00,WeatherDisplay:10.37,2013-03-08 00:24:00,
2013-03-07 18:29:00,41.6,30.3,30.31,East,87,0.0,0.0,64,0.00,CLR,,0.00,WeatherDisplay:10.37,2013-03-08 00:29:00,
2013-03-07 18:34:00,41.4,30.1,30.31,East,87,0.0,0.0,64,0.00,CLR,,0.00,WeatherDisplay:10.37,2013-03-08 00:34:00,
2013-03-07 18:40:00,41.2,29.9,30.31,East,87,0.0,0.0,64,0.00,CLR,,0.00,WeatherDisplay:10.37,2013-03-08 00:40:00,
2013-03-07 18:45:00,41.0,30.1,30.31,East,87,1.1,0.0,65,0.00,CLR,,0.00,WeatherDisplay:10.37,2013-03-08 00:45:00,
2013-03-07 18:50:00,40.7,29.8,30.31,East,87,1.1,1.1,65,0.00,CLR,,0.00,WeatherDisplay:10.37,2013-03-08 00:50:00,
2013-03-07 18:55:00,40.6,29.7,30.31,East,89,1.1,1.1,65,0.00,CLR,,0.00,WeatherDisplay:10.37,2013-03-08 00:55:00,
2013-03-07 19:00:00,40.4,29.9,30.31,East,88,1.1,1.1,66,0.00,CLR,,0.00,WeatherDisplay:10.37,2013-03-08 01:00:00,
2013-03-07 19:05:00,40.2,29.7,30.31,ENE,76,1.1,1.1,66,0.00,CLR,,0.00,WeatherDisplay:10.37,2013-03-08 01:05:00,
2013-03-07 19:10:00,40.1,29.6,30.31,East,96,1.1,1.1,66,0.00,CLR,,0.00,WeatherDisplay:10.37,2013-03-08 01:10:00,
2013-03-07 19:15:00,40.0,29.6,30.31,East,92,1.1,1.1,66,0.00,CLR,,0.00,WeatherDisplay:10.37,2013-03-08 01:15:00,
2013-03-07 19:20:00,39.9,29.5,30.31,East,83,1.1,1.1,66,0.00,CLR,,0.00,WeatherDisplay:10.37,2013-03-08 01:20:00,
2013-03-07 19:25:00,39.7,29.3,30.31,East,83,2.0,2.0,66,0.00,CLR,,0.00,WeatherDisplay:10.37,2013-03-08 01:25:00,
2013-03-07 19:30:00,39.6,29.2,30.31,East,86,1.1,1.1,66,0.00,CLR,,0.00,WeatherDisplay:10.37,2013-03-08 01:30:00,
2013-03-07 19:35:00,39.5,29.1,30.31,East,84,1.1,1.1,66,0.00,CLR,,0.00,WeatherDisplay:10.37,2013-03-08 01:35:00,
2013-03-07 19:40:00,39.3,29.3,30.31,East,84,1.1,1.1,67,0.00,CLR,,0.00,WeatherDisplay:10.37,2013-03-08 01:40:00,
2013-03-07 19:45:00,39.1,29.1,30.31,East,84,2.3,2.3,67,0.00,CLR,,0.00,WeatherDisplay:10.37,2013-03-08 01:45:00,
2013-03-07 19:50:00,39.0,29.0,30.31,ENE,71,2.3,2.3,67,0.00,CLR,,0.00,WeatherDisplay:10.37,2013-03-08 01:50:00,
2013-03-07 19:55:00,38.8,29.1,30.31,East,94,3.5,3.5,68,0.00,CLR,,0.00,WeatherDisplay:10.37,2013-03-08 01:55:00,
2013-03-07 20:00:00,38.8,29.5,30.31,East,82,3.5,3.5,69,0.00,CLR,,0.00,WeatherDisplay:10.37,2013-03-08 02:00:00,
2013-03-07 20:05:00,38.7,29.4,30.31,East,89,2.3,2.3,69,0.00,CLR,,0.00,WeatherDisplay:10.37,2013-03-08 02:05:00,
2013-03-07 20:10:00,38.7,29.4,30.31,East,80,4.6,4.6,69,0.00,CLR,,0.00,WeatherDisplay:10.37,2013-03-08 02:10:00,
2013-03-07 20:15:00,38.6,29.3,30.31,East,82,3.5,3.5,69,0.00,CLR,,0.00,WeatherDisplay:10.37,2013-03-08 02:15:00,
2013-03-07 20:21:00,38.5,29.2,30.31,ENE,59,2.3,0.0,69,0.00,CLR,,0.00,WeatherDisplay:10.37,2013-03-08 02:21:00,
2013-03-07 20:26:00,38.4,29.5,30.31,East,84,3.0,3.0,70,0.00,CLR,,0.00,WeatherDisplay:10.37,2013-03-08 02:26:00,
2013-03-07 20:31:00,38.2,29.3,30.31,ENE,76,1.1,1.1,70,0.00,CLR,,0.00,WeatherDisplay:10.37,2013-03-08 02:31:00,
2013-03-07 20:36:00,38.0,29.1,30.31,East,82,1.1,1.1,70,0.00,CLR,,0.00,WeatherDisplay:10.37,2013-03-08 02:36:00,
2013-03-07 20:41:00,37.8,29.2,30.31,ENE,76,2.3,2.3,71,0.00,CLR,,0.00,WeatherDisplay:10.37,2013-03-08 02:41:00,
2013-03-07 20:46:00,37.7,29.1,30.31,East,88,2.3,2.3,71,0.00,CLR,,0.00,WeatherDisplay:10.37,2013-03-08 02:46:00,
2013-03-07 20:51:00,37.5,28.9,30.31,East,80,2.3,2.3,71,0.00,CLR,,0.00,WeatherDisplay:10.37,2013-03-08 02:51:00,
2013-03-07 20:56:00,37.4,28.9,30.31,ENE,76,1.1,0.0,71,0.00,CLR,,0.00,WeatherDisplay:10.37,2013-03-08 02:56:00,
2013-03-07 21:01:00,37.2,29.0,30.31,ENE,77,1.1,1.1,72,0.00,CLR,,0.00,WeatherDisplay:10.37,2013-03-08 03:01:00,
2013-03-07 21:06:00,37.0,28.8,30.31,East,87,2.3,2.3,72,0.00,CLR,,0.00,WeatherDisplay:10.37,2013-03-08 03:06:00,
2013-03-07 21:11:00,36.9,28.7,30.31,East,85,2.3,2.3,72,0.00,CLR,,0.00,WeatherDisplay:10.37,2013-03-08 03:11:00,
2013-03-07 21:16:00,36.8,28.6,30.31,ENE,78,2.3,2.3,72,0.00,CLR,,0.00,WeatherDisplay:10.37,2013-03-08 03:16:00,
2013-03-07 21:21:00,36.7,28.5,30.31,ENE,78,1.1,1.1,72,0.00,CLR,,0.00,WeatherDisplay:10.37,2013-03-08 03:21:00,
2013-03-07 21:26:00,36.5,28.7,30.31,ENE,78,0.0,0.0,73,0.00,CLR,,0.00,WeatherDisplay:10.37,2013-03-08 03:26:00,
2013-03-07 21:31:00,36.3,28.5,30.31,ENE,78,0.0,0.0,73,0.00,CLR,,0.00,WeatherDisplay:10.37,2013-03-08 03:31:00,
2013-03-07 21:36:00,36.2,28.7,30.32,ENE,71,1.1,0.0,74,0.00,CLR,,0.00,WeatherDisplay:10.37,2013-03-08 03:36:00,
2013-03-07 21:41:00,36.1,28.6,30.32,ENE,71,0.0,0.0,74,0.00,CLR,,0.00,WeatherDisplay:10.37,2013-03-08 03:41:00,
2013-03-07 21:46:00,36.1,28.6,30.32,ENE,71,1.1,0.0,74,0.00,CLR,,0.00,WeatherDisplay:10.37,2013-03-08 03:46:00,
2013-03-07 21:51:00,36.0,28.5,30.32,ENE,71,0.0,0.0,74,0.00,CLR,,0.00,WeatherDisplay:10.37,2013-03-08 03:51:00,
2013-03-07 21:56:00,35.9,28.7,30.32,ENE,71,1.1,0.0,75,0.00,CLR,,0.00,WeatherDisplay:10.37,2013-03-08 03:56:00,
2013-03-07 22:01:00,35.7,28.6,30.32,ENE,71,1.1,0.0,75,0.00,CLR,,0.00,WeatherDisplay:10.37,2013-03-08 04:01:00,
2013-03-07 22:06:00,35.6,28.5,30.32,ENE,71,0.0,0.0,75,0.00,CLR,,0.00,WeatherDisplay:10.37,2013-03-08 04:06:00,
2013-03-07 22:11:00,35.5,28.4,30.32,ENE,71,0.0,0.0,75,0.00,CLR,,0.00,WeatherDisplay:10.37,2013-03-08 04:11:00,
2013-03-07 22:16:00,35.4,28.3,30.32,ENE,71,0.0,0.0,75,0.00,CLR,,0.00,WeatherDisplay:10.37,2013-03-08 04:16:00,
2013-03-07 22:21:00,35.2,28.4,30.32,ENE,71,1.1,0.0,76,0.00,CLR,,0.00,WeatherDisplay:10.37,2013-03-08 04:21:00,
2013-03-07 22:26:00,35.1,28.3,30.32,ENE,71,0.0,0.0,76,0.00,CLR,,0.00,WeatherDisplay:10.37,2013-03-08 04:26:00,
2013-03-07 22:31:00,35.0,28.5,30.32,ENE,71,0.0,0.0,77,0.00,CLR,,0.00,WeatherDisplay:10.37,2013-03-08 04:31:00,
2013-03-07 22:36:00,34.8,28.3,30.32,ENE,72,1.0,1.0,77,0.00,CLR,,0.00,WeatherDisplay:10.37,2013-03-08 04:36:00,
2013-03-07 22:41:00,34.7,28.2,30.32,East,84,0.0,0.0,77,0.00,CLR,,0.00,WeatherDisplay:10.37,2013-03-08 04:41:00,
2013-03-07 22:46:00,34.5,28.3,30.32,East,84,0.0,0.0,78,0.00,CLR,,0.00,WeatherDisplay:10.37,2013-03-08 04:46:00,
2013-03-07 22:51:00,34.4,28.2,30.32,East,84,0.0,0.0,78,0.00,CLR,,0.00,WeatherDisplay:10.37,2013-03-08 04:51:00,
2013-03-07 22:56:00,34.2,28.1,30.32,East,84,0.0,0.1,78,0.00,CLR,,0.00,WeatherDisplay:10.37,2013-03-08 04:56:00,
2013-03-07 23:00:00,34.1,28.3,30.32,East,84,1.1,0.0,79,0.00,CLR,,0.00,WeatherDisplay:10.37,2013-03-08 05:00:00,
2013-03-07 23:01:00,34.1,28.3,30.32,East,84,0.0,0.0,79,0.00,CLR,,0.00,WeatherDisplay:10.37,2013-03-08 05:01:00,
2013-03-07 23:06:00,33.9,28.1,30.32,ENE,68,0.0,0.0,79,0.00,CLR,,0.00,WeatherDisplay:10.37,2013-03-08 05:06:00,
2013-03-07 23:11:00,33.8,28.0,30.32,ENE,68,0.0,0.0,79,0.00,CLR,,0.00,WeatherDisplay:10.37,2013-03-08 05:11:00,
2013-03-07 23:16:00,33.7,28.2,30.32,ENE,68,0.0,0.0,80,0.00,CLR,,0.00,WeatherDisplay:10.37,2013-03-08 05:16:00,
2013-03-07 23:21:00,33.7,28.2,30.32,ENE,68,0.0,0.1,80,0.00,CLR,,0.00,WeatherDisplay:10.37,2013-03-08 05:21:00,
2013-03-07 23:26:00,33.6,28.1,30.32,ENE,68,0.0,0.0,80,0.00,CLR,,0.00,WeatherDisplay:10.37,2013-03-08 05:26:00,
2013-03-07 23:31:00,33.5,28.0,30.32,ENE,68,0.0,0.0,80,0.00,CLR,,0.00,WeatherDisplay:10.37,2013-03-08 05:31:00,
2013-03-07 23:36:00,33.4,27.9,30.32,ENE,68,0.0,0.0,80,0.00,CLR,,0.00,WeatherDisplay:10.37,2013-03-08 05:36:00,
2013-03-07 23:41:00,33.3,28.1,30.33,ENE,68,0.0,0.0,81,0.00,CLR,,0.00,WeatherDisplay:10.37,2013-03-08 05:41:00,
2013-03-07 23:46:00,33.2,28.0,30.33,ENE,68,0.0,0.0,81,0.00,CLR,,0.00,WeatherDisplay:10.37,2013-03-08 05:46:00,
2013-03-07 23:51:00,33.1,27.9,30.33,ENE,68,0.0,0.0,81,0.00,CLR,,0.00,WeatherDisplay:10.37,2013-03-08 05:51:00,
2013-03-07 23:56:00,33.0,27.8,30.33,ENE,68,0.0,0.0,81,0.00,CLR,,0.00,WeatherDisplay:10.37,2013-03-08 05:56:00,